Stations météo

Publicité
Tholey, Allemagne (10706): Température de l'air & dewpoint: 21.11.2020 02:00:00 - 27.11.2020 02:00:00 (CET)Tholey, Allemagne (10706): Température de l'air 5cm & Température de l'air -5cm: 21.11.2020 02:00:00 - 27.11.2020 02:00:00 (CET)Tholey, Allemagne (10706): Température de l'air -20cm & Température de l'air -100cm: 21.11.2020 02:00:00 - 27.11.2020 02:00:00 (CET)Tholey, Allemagne (10706): Vitesse du vent & gusts: 21.11.2020 02:00:00 - 27.11.2020 02:00:00 (CET)Tholey, Allemagne (10706): Direction du vent: 21.11.2020 02:00:00 - 27.11.2020 02:00:00 (CET)Tholey, Allemagne (10706): reduced air pressure: 21.11.2020 02:00:00 - 27.11.2020 02:00:00 (CET)Tholey, Allemagne (10706): visibility: 21.11.2020 02:00:00 - 27.11.2020 02:00:00 (CET)Tholey, Allemagne (10706): Ensoleillement: 21.11.2020 02:00:00 - 27.11.2020 02:00:00 (CET)Tholey, Allemagne (10706): Quantités de précipitations: 21.11.2020 02:00:00 - 27.11.2020 02:00:00 (CET)
Date & Time tt [°C] td [°C] tt 5cm [°C] tt -5cm [°C] tt -20cm [°C] tt -100cm [°C] ff [km/h] ff [knt] fx [km/h] fx [knt] dd ppp [hPa] vv [km] sd [min] rr [mm]
27.11.2020 02:00:00 1,5 0,6 0,0 1,4 4,4 9,7 11 6 14 7 NE 1021,5 26 0 0,0
27.11.2020 01:00:00 1,4 0,6 -0,6 1,8 4,4 9,7 8 5 13 7 NE 1022,1 23 0 0,0
27.11.2020 00:00:00 1,8 0,9 0,9 2,3 4,5 9,7 9 5 19 10 NE 1022,1 29 0 0,0
26.11.2020 23:00:00 1,2 0,8 0,4 2,4 4,5 9,7 10 5 14 7 ENE 1022,1 16 0 0,0
26.11.2020 22:00:00 1,4 1,1 1,4 2,6 4,6 9,7 10 5 14 8 ENE 1022,2 8 0 0,0
26.11.2020 21:00:00 1,2 1,0 1,2 2,5 4,6 9,7 10 5 16 9 ENE 1022,2 3,6 0 0,0
26.11.2020 20:00:00 0,9 0,7 0,0 2,4 4,7 9,7 12 7 16 9 ENE 1022,4 6 0 0,0
26.11.2020 19:00:00 1,5 1,3 1,4 3,0 4,7 9,7 11 6 17 9 ENE 1022,4 4,1 0 0,0
26.11.2020 18:00:00 1,6 1,4 1,5 3,1 4,7 9,7 12 7 15 8 E 1022,3 2,4 0 0,0
26.11.2020 17:00:00 2,4 1,7 0,8 3,7 4,6 9,7 10 5 14 8 E 1022,0 13 23 0,0
26.11.2020 16:00:00 3,6 2,0 3,5 4,7 4,4 9,7 10 5 12 6 E 1021,7 24 60 0,0
26.11.2020 15:00:00 3,3 1,9 4,6 4,9 4,2 9,8 10 5 15 8 E 1022,0 24 46 0,0
26.11.2020 14:00:00 2,4 2,0 3,7 4,7 4,1 9,8 12 6 16 9 E 1022,7 4,5 33 0,0
26.11.2020 13:00:00 2,3 1,5 3,9 3,7 4,0 9,8 12 7 17 9 E 1023,3 11 34 0,0
26.11.2020 12:00:00 0,4 0,1 1,0 2,5 4,1 9,8 14 8 18 10 ENE 1024,1 2,6 42 0,0
26.11.2020 11:00:00 0,5 -0,3 1,6 1,3 4,1 9,8 15 8 18 10 E 1024,4 11 60 0,0
26.11.2020 10:00:00 -0,3 -0,8 0,1 0,9 4,2 9,8 12 7 18 10 E 1024,3 10 60 0,0
26.11.2020 09:00:00 -1,6 -2,1 -1,3 0,9 4,3 9,8 12 7 15 8 ENE 1024,7 12 22 0,0
26.11.2020 08:00:00 -1,6 -2,1 -2,3 1,0 4,4 9,8 13 7 16 9 ENE 1024,2 18 0 0,0
26.11.2020 07:00:00 -1,9 -2,2 -2,6 1,0 4,6 9,8 11 6 14 8 ENE 1024,0 10 0 0,0
26.11.2020 06:00:00 -1,9 -2,1 -2,4 1,1 4,7 9,8 9 5 14 8 ENE 1024,0 0,3 0 0,0
26.11.2020 05:00:00 -1,4 -1,6 -2,1 1,2 4,8 9,8 11 6 13 7 ENE 1023,9 0,6 0 0,0
26.11.2020 04:00:00 -1,4 -1,7 -2,0 1,2 5,0 9,8 11 6 13 7 ENE 1023,8 0,2 0 0,0
26.11.2020 03:00:00 -0,4 -0,7 -1,6 1,3 5,2 9,8 11 6 13 7 ENE 1023,6 1,4 0 0,0
26.11.2020 02:00:00 0,8 0,5 -0,6 1,6 5,4 9,8 11 6 13 7 ENE 1023,0 7 0 0,0
26.11.2020 01:00:00 1,7 1,4 -0,4 2,0 5,5 9,8 9 5 11 6 ENE 1022,8 1,1 0 0,0
26.11.2020 00:00:00 3,1 2,3 0,4 2,4 5,7 9,9 8 4 10 5 ENE 1022,5 12 0 0,0
25.11.2020 23:00:00 3,5 2,4 0,7 2,9 5,8 9,9 6 4 13 7 ENE 1022,0 14 0 0,0
25.11.2020 22:00:00 3,8 2,6 1,7 3,3 6,0 9,9 11 6 14 7 NE 1021,8 16 0 0,0
25.11.2020 21:00:00 4,7 3,1 2,2 3,6 6,1 9,9 9 5 13 7 ENE 1021,2 23 0 0,0
25.11.2020 20:00:00 4,6 2,9 2,0 4,0 6,3 9,9 9 5 12 6 NE 1021,0 23 0 0,0
25.11.2020 19:00:00 5,6 3,3 2,5 4,7 6,4 9,9 8 4 10 5 E 1020,6 31 0 0,0
25.11.2020 18:00:00 7,0 3,6 2,7 5,3 6,4 9,9 5 3 6 3 E 1020,3 38 0 0,0
25.11.2020 17:00:00 7,4 3,8 3,1 6,5 6,3 9,9 4 2 7 4 SSE 1019,8 35 0 0,0
25.11.2020 16:00:00 7,5 3,5 6,2 8,0 6,1 9,9 5 3 8 4 SSE 1019,6 40 57 0,0
25.11.2020 15:00:00 8,2 3,2 9,0 8,9 5,8 9,9 3 2 7 4 SE 1019,7 35 60 0,0
25.11.2020 14:00:00 7,8 3,1 8,9 8,9 5,5 9,9 6 4 11 6 S 1019,7 35 60 0,0
25.11.2020 13:00:00 7,2 3,2 8,8 8,3 5,3 9,9 4 2 10 6 S 1020,0 36 60 0,0
25.11.2020 12:00:00 5,4 2,6 7,1 6,9 5,2 10,0 6 3 10 6 S 1020,7 23 60 0,0
25.11.2020 11:00:00 3,5 2,4 5,3 4,9 5,2 10,0 6 3 9 5 E 1021,2 11 23 0,0
25.11.2020 10:00:00 2,1 1,9 2,8 3,8 5,2 10,0 5 3 8 4 ENE 1021,3 0,1 12 0,0
25.11.2020 09:00:00 2,1 2,1 1,8 3,6 5,2 10,0 5 3 8 5 NE 1021,1 0,2 0 0,0
25.11.2020 08:00:00 2,3 2,3 2,2 3,7 5,2 10,0 6 3 11 6 E 1020,7 0,2 0 0,0
25.11.2020 07:00:00 2,4 2,4 2,4 3,8 5,3 10,0 7 4 13 7 ENE 1020,4 0,2 0 0,0
25.11.2020 06:00:00 2,5 2,5 2,5 3,9 5,3 10,0 10 6 16 8 E 1020,3 0,1 0 0,0
25.11.2020 05:00:00 2,7 2,7 2,7 4,0 5,3 10,0 11 6 21 11 E 1020,3 0,1 0 0,0
25.11.2020 04:00:00 2,9 2,8 2,9 4,1 5,3 10,0 13 7 19 10 E 1020,6 0,1 0 0,0
25.11.2020 03:00:00 3,2 3,1 3,2 4,2 5,3 10,0 12 7 20 11 E 1020,9 0,2 0 0,0
25.11.2020 02:00:00 3,4 3,1 3,3 4,2 5,2 10,0 13 7 19 10 E 1021,0 1,5 0 0,0
25.11.2020 01:00:00 3,7 3,4 3,5 4,3 5,2 10,0 10 5 15 8 E 1021,6 2,9 0 0,0
25.11.2020 00:00:00 3,8 3,5 3,7 4,3 5,2 10,1 5 3 12 7 SE 1022,0 3,5 0 0,0
24.11.2020 23:00:00 3,9 3,2 3,7 4,2 5,2 10,1 10 5 16 9 ESE 1022,1 7 0 0,0
24.11.2020 22:00:00 3,9 3,2 3,7 4,2 5,2 10,1 10 5 17 9 ESE 1022,4 9 0 0,0
24.11.2020 21:00:00 3,9 3,2 3,7 4,2 5,1 10,1 9 5 16 9 E 1022,8 11 0 0,0
24.11.2020 20:00:00 3,9 3,2 3,7 4,2 5,1 10,1 11 6 18 10 E 1023,0 12 0 0,0
24.11.2020 19:00:00 3,9 3,3 3,7 4,2 5,1 10,1 11 6 16 8 E 1023,2 11 0 0,0
24.11.2020 18:00:00 3,7 3,4 3,6 4,2 5,0 10,1 10 5 16 9 E 1023,3 7 0 0,0
24.11.2020 17:00:00 3,5 3,3 3,4 4,2 5,0 10,1 9 5 21 12 E 1023,5 8 0 0,0
24.11.2020 16:00:00 3,3 3,1 3,4 4,4 4,9 10,1 15 8 22 12 E 1023,8 6 0 0,0
24.11.2020 15:00:00 3,5 3,5 3,7 4,4 4,7 10,1 13 7 19 11 E 1024,3 1,5 0 0,0
24.11.2020 14:00:00 3,3 3,3 3,7 4,2 4,6 10,1 11 6 19 11 E 1024,8 0,1 0 0,0
24.11.2020 13:00:00 2,5 2,5 3,0 3,8 4,6 10,1 12 7 21 11 E 1025,7 0,1 0 0,0
24.11.2020 12:00:00 1,7 1,7 2,4 3,0 4,6 10,1 10 5 16 9 ENE 1026,9 0,2 0 0,0
24.11.2020 11:00:00 0,6 0,6 1,5 2,1 4,6 10,2 12 7 20 11 ENE 1027,7 0,2 0 0,0
24.11.2020 10:00:00 -0,1 -0,2 -0,1 1,3 4,8 10,2 15 8 21 11 ENE 1027,5 0,2 0 0,0
24.11.2020 09:00:00 -0,5 -0,6 -0,4 1,2 4,9 10,2 15 8 20 11 ENE 1027,8 0,2 0 0,0
24.11.2020 08:00:00 -0,7 -1,0 -1,0 1,2 5,0 10,2 16 9 19 10 NE 1028,0 0,3 0 0,0
24.11.2020 07:00:00 -0,5 -0,7 -1,6 1,3 5,2 10,2 12 6 17 9 ENE 1027,9 0,9 0 0,0
24.11.2020 06:00:00 -0,1 -0,2 -1,2 1,4 5,4 10,2 12 6 15 8 ENE 1028,1 0,9 0 0,0
24.11.2020 05:00:00 -0,8 -0,9 -1,4 1,6 5,6 10,2 10 6 12 7 ENE 1028,4 0,1 0 0,0
24.11.2020 04:00:00 0,3 0,3 -0,2 2,0 5,7 10,2 7 4 12 6 ENE 1028,6 0,2 0 0,0
24.11.2020 03:00:00 3,3 3,3 -0,1 2,4 5,9 10,2 9 5 15 8 NE 1028,6 1,8 0 0,0
24.11.2020 02:00:00 2,3 2,2 0,3 2,8 6,1 10,2 10 5 13 7 NE 1029,1 6 0 0,0
24.11.2020 01:00:00 3,3 3,3 1,2 3,2 6,3 10,2 10 5 12 7 NE 1029,7 10 0 0,0
24.11.2020 00:00:00 2,3 2,3 0,7 3,8 6,4 10,3 8 4 11 6 ENE 1030,1 0,2 0 0,0
23.11.2020 23:00:00 3,7 3,2 1,7 4,3 6,5 10,3 6 3 9 5 NE 1030,4 0,2 0 0,0
23.11.2020 22:00:00 6,0 5,4 1,1 5,0 6,5 10,3 0 0 9 5 N 1030,1 12 0 0,0
23.11.2020 21:00:00 6,3 5,5 5,0 6,0 6,5 10,3 6 3 10 5 ENE 1030,0 13 0 0,0
23.11.2020 20:00:00 5,9 5,7 5,4 6,3 6,5 10,3 6 4 13 7 ENE 1030,2 2,7 0 0,0
23.11.2020 19:00:00 6,2 5,8 5,2 6,4 6,5 10,3 3 2 8 4 E 1030,1 6 0 0,0
23.11.2020 18:00:00 6,5 6,2 6,1 6,8 6,4 10,3 4 2 7 4 SSE 1030,2 3,7 0 0,0
23.11.2020 17:00:00 6,7 6,3 6,2 7,1 6,3 10,3 5 3 6 3 W 1029,8 4,7 0 0,0
23.11.2020 16:00:00 6,9 6,1 6,2 7,5 6,2 10,4 0 0 5 3 N 1029,9 8 0 0,0
23.11.2020 15:00:00 6,9 6,3 7,3 7,7 6,0 10,4 3 2 5 3 E 1029,8 8 0 0,0
23.11.2020 14:00:00 6,4 6,0 7,2 7,4 5,8 10,4 5 3 8 4 WSW 1030,2 5 0 0,0
23.11.2020 13:00:00 6,0 5,6 6,5 7,0 5,7 10,4 3 2 6 3 ESE 1030,4 5 0 0,0
23.11.2020 12:00:00 5,6 5,5 6,4 6,4 5,6 10,4 4 2 9 5 SW 1030,7 3,0 0 0,1
23.11.2020 11:00:00 5,1 5,0 5,5 5,7 5,5 10,4 9 5 18 10 W 1031,0 0,3 0 0,2
23.11.2020 10:00:00 4,7 4,6 4,9 5,1 5,5 10,4 11 6 15 8 WSW 1030,5 0,2 0 0,1
23.11.2020 09:00:00 4,5 4,5 4,5 4,7 5,5 10,4 8 5 11 6 WSW 1030,1 0,2 0 0,1
23.11.2020 08:00:00 4,3 4,3 4,2 4,6 5,4 10,5 8 4 13 7 W 1029,6 0,1 0 0,3
23.11.2020 07:00:00 4,2 4,1 4,1 4,5 5,4 10,5 11 6 16 9 W 1029,0 0,1 0 0,0
23.11.2020 06:00:00 4,0 3,9 3,9 4,5 5,4 10,5 11 6 18 10 W 1028,8 0,1 0 0,0
23.11.2020 05:00:00 3,9 3,8 3,8 4,4 5,4 10,5 12 6 17 9 W 1028,7 0,1 0 0,4
23.11.2020 04:00:00 4,0 3,1 3,6 4,4 5,4 10,5 11 6 15 8 W 1028,4 2,3 0 0,0
23.11.2020 03:00:00 4,2 2,6 3,8 4,4 5,3 10,5 8 4 10 5 W 1028,6 9 0 0,0
23.11.2020 02:00:00 4,3 2,2 4,1 4,3 5,3 10,5 8 4 13 7 WSW 1028,6 19 0 0,0
23.11.2020 01:00:00 4,2 2,2 4,0 4,2 5,3 10,6 9 5 14 7 W 1028,8 18 0 0,0
23.11.2020 00:00:00 4,1 2,3 3,2 4,3 5,3 10,6 8 5 15 8 W 1028,8 16 0 0,0
22.11.2020 23:00:00 4,2 2,0 4,0 4,3 5,3 10,6 10 5 13 7 W 1028,9 16 0 0,0
22.11.2020 22:00:00 4,0 2,0 3,9 4,3 5,3 10,6 8 4 13 7 WSW 1029,0 16 0 0,0
22.11.2020 21:00:00 4,2 2,0 4,0 4,3 5,3 10,6 6 3 13 7 W 1028,9 18 0 0,0
22.11.2020 20:00:00 4,1 2,0 3,8 4,3 5,3 10,6 9 5 13 7 WSW 1029,2 18 0 0,0
22.11.2020 19:00:00 4,1 1,9 3,9 4,5 5,2 10,6 10 5 13 7 W 1029,1 18 0 0,0
22.11.2020 18:00:00 4,1 1,8 3,9 4,6 5,2 10,7 8 4 10 5 W 1029,0 20 0 0,0
22.11.2020 17:00:00 4,1 1,5 3,9 4,8 5,0 10,7 8 4 14 8 W 1028,6 23 0 0,0
22.11.2020 16:00:00 4,4 1,4 4,5 5,3 4,9 10,7 9 5 16 9 W 1028,7 27 0 0,0
22.11.2020 15:00:00 4,3 1,1 4,7 5,2 4,7 10,7 11 6 15 8 WSW 1028,9 24 0 0,0
22.11.2020 14:00:00 4,0 0,8 4,7 5,1 4,6 10,7 7 4 15 8 W 1029,4 25 0 0,0
22.11.2020 13:00:00 3,7 0,6 4,4 4,7 4,4 10,7 10 5 13 7 WSW 1030,0 29 0 0,0
22.11.2020 12:00:00 3,2 0,5 4,0 4,3 4,3 10,7 8 4 9 5 WSW 1030,6 23 0 0,0
22.11.2020 11:00:00 2,4 0,0 3,0 3,4 4,2 10,8 5 3 12 7 WSW 1031,1 20 0 0,0
22.11.2020 10:00:00 1,6 -0,6 2,3 2,5 4,2 10,8 6 3 11 6 W 1031,1 20 0 0,0
22.11.2020 09:00:00 0,8 -0,7 0,9 1,9 4,2 10,8 9 5 11 6 W 1031,3 15 0 0,0
22.11.2020 08:00:00 0,5 -1,1 0,5 1,6 4,2 10,8 5 3 10 5 W 1031,2 16 0 0,0
22.11.2020 07:00:00 0,3 -1,3 0,3 1,4 4,2 10,8 7 4 10 6 W 1031,3 15 0 0,0
22.11.2020 06:00:00 0,3 -1,3 0,0 1,2 4,3 10,8 6 4 9 5 W 1031,1 17 0 0,0
22.11.2020 05:00:00 0,2 -0,9 -0,3 1,1 4,3 10,8 5 3 7 4 W 1031,2 11 0 0,0
22.11.2020 04:00:00 0,1 -0,9 -0,3 1,0 4,4 10,8 6 3 7 4 WSW 1031,2 9 0 0,0
22.11.2020 03:00:00 0,7 -0,9 -1,0 1,0 4,5 10,9 5 3 6 3 W 1031,2 14 0 0,0
22.11.2020 02:00:00 0,4 -0,9 -2,1 1,0 4,6 10,9 5 3 6 4 WSW 1031,5 18 0 0,0
22.11.2020 01:00:00 0,4 -0,9 -2,1 1,0 4,7 10,9 4 2 6 3 SW 1031,9 16 0 0,0
22.11.2020 00:00:00 0,5 -1,0 -1,5 1,0 4,8 10,9 4 2 7 4 SW 1032,3 17 0 0,0
21.11.2020 23:00:00 0,6 -1,0 -1,9 0,8 5,0 10,9 6 3 11 6 WSW 1032,3 19 0 0,0
21.11.2020 22:00:00 1,3 -1,1 -0,7 1,1 5,1 10,9 9 5 11 6 W 1032,7 25 0 0,0
21.11.2020 21:00:00 1,7 -1,0 -0,6 1,4 5,3 10,9 9 5 11 6 W 1033,0 24 0 0,0
21.11.2020 20:00:00 2,3 -1,5 0,0 1,8 5,4 10,9 9 5 13 7 W 1033,0 30 0 0,0
21.11.2020 19:00:00 2,3 -1,4 -0,6 2,3 5,5 10,9 6 3 7 4 WSW 1032,9 28 0 0,0
21.11.2020 18:00:00 2,8 -1,6 -1,3 3,0 5,5 10,9 5 3 9 5 WSW 1033,0 28 0 0,0
21.11.2020 17:00:00 3,6 -2,0 0,7 4,1 5,4 11,0 7 4 13 7 W 1033,0 43 45 0,0
21.11.2020 16:00:00 4,8 -2,1 4,5 5,3 5,2 11,0 9 5 15 8 WSW 1032,8 56 60 0,0
21.11.2020 15:00:00 4,9 -1,5 5,1 5,9 4,9 11,0 11 6 18 10 W 1033,4 37 60 0,0
21.11.2020 14:00:00 4,7 -2,1 5,1 5,9 4,7 11,0 9 5 14 8 WSW 1033,8 50 60 0,0
21.11.2020 13:00:00 4,4 0,3 6,3 5,0 4,6 11,0 8 5 13 7 WSW 1034,4 36 60 0,0
21.11.2020 12:00:00 2,9 -0,6 4,0 1,9 4,7 11,0 6 4 10 6 SSW 1035,1 26 56 0,0
21.11.2020 11:00:00 1,8 -0,1 2,1 1,0 4,8 11,0 3 2 5 3 SSE 1035,7 8 60 0,0
21.11.2020 10:00:00 -0,9 -1,4 -1,3 1,0 4,8 11,0 3 1 6 3 WNW 1036,5 11 0 0,0
21.11.2020 09:00:00 -2,1 -3,1 -2,0 1,0 4,9 11,0 3 2 4 2 E 1036,9 10 0 0,0
21.11.2020 08:00:00 -1,8 -2,5 -3,1 1,0 5,0 11,0 4 2 6 3 ENE 1036,8 17 0 0,0
21.11.2020 07:00:00 -1,7 -2,2 -3,2 1,1 5,1 11,0 2 1 5 3 E 1036,8 12 0 0,0
21.11.2020 06:00:00 -1,5 -1,9 -3,3 1,1 5,2 11,0 3 2 6 3 ENE 1036,5 9 0 0,0
21.11.2020 05:00:00 -1,4 -1,9 -3,5 1,2 5,4 11,1 5 3 8 4 ENE 1036,8 9 0 0,0
21.11.2020 04:00:00 -2,1 -2,4 -3,4 1,2 5,5 11,1 5 3 8 4 ENE 1036,9 0,4 0 0,0
21.11.2020 03:00:00 -0,8 -1,1 -3,6 1,3 5,7 11,1 5 3 8 4 ENE 1036,8 1,6 0 0,0
21.11.2020 02:00:00 -0,4 -0,8 -3,4 1,3 5,8 11,1 6 3 6 4 ENE 1037,0 3,9 0 0,0

tt = Température de l'air
td = dewpoint
tt 5cm = Température de l'air 5cm
tt -5cm = Température de l'air -5cm
tt -20cm = Température de l'air -20cm
tt -100cm = Température de l'air -100cm
ff = Vitesse du vent
fx = gusts
dd = Direction du vent
ppp = reduced air pressure
vv = visibility
sd = Ensoleillement
rr = Quantités de précipitations

stations d'obs. à proximité